Location: Unspecified
(54.0494°N, 0.0000°E)
Time: 13:36:03
(UTC+00:00)

Cosmos 1333 Rocket - Visible Passes

Search period start: 04 April 2026 00:00
Search period end: 14 April 2026 00:00
Orbit: 957 x 1002 km, 82.9° (Epoch: 29 March)

Date Brightness Start Highest point End Pass type
(mag) Time Alt. Az. Time Alt. Az. Time Alt. Az.
4 Apr 5.3 00:21:47 41° W 00:22:31 42° WNW 00:28:35 10° N visible
4 Apr 6.8 02:07:59 10° WNW 02:09:59 11° NW 02:11:59 10° NNW visible
4 Apr 6.2 21:18:34 17° E 21:19:02 17° ENE 21:22:52 10° NE visible
4 Apr 4.4 23:03:18 74° ESE 23:03:27 75° E 23:09:51 10° NNE visible
5 Apr 5.9 00:48:02 25° W 00:49:37 28° WNW 00:55:01 10° N visible
5 Apr 5.6 21:44:48 27° E 21:45:11 27° E 21:50:24 10° NNE visible
5 Apr 4.6 23:29:32 66° WSW 23:30:09 71° WNW 23:36:34 10° N visible
6 Apr 6.5 01:14:16 15° W 01:16:53 18° NW 01:21:12 10° N visible
6 Apr 5.0 22:11:01 43° E 22:11:31 43° E 22:17:30 10° NNE visible
6 Apr 5.2 23:55:45 40° W 23:57:01 45° WNW 00:03:09 10° N visible
7 Apr 6.8 01:41:59 10° WNW 01:44:24 12° NW 01:46:48 10° NNW visible
7 Apr 6.2 20:52:30 15° E 20:53:41 16° ENE 20:57:13 10° NE visible
7 Apr 4.4 22:37:14 63° SE 22:38:01 70° E 22:44:23 10° NNE visible
8 Apr 5.9 00:21:58 24° W 00:24:05 29° WNW 00:29:36 10° N visible
8 Apr 5.6 21:18:41 24° E 21:19:48 25° E 21:24:51 10° NNE visible
8 Apr 4.6 23:03:25 58° SW 23:04:41 76° WNW 23:11:06 10° N visible
9 Apr 6.5 00:48:09 14° W 00:51:21 19° NW 00:55:50 10° N visible
9 Apr 5.0 21:44:51 37° ESE 21:46:06 41° E 21:51:59 10° NNE visible
9 Apr 5.2 23:29:35 37° WSW 23:31:32 48° WNW 23:37:42 10° N visible
10 Apr 6.8 01:16:02 10° WNW 01:18:48 13° NW 01:21:34 10° NNW visible
10 Apr 6.2 20:26:16 12° E 20:28:19 14° ENE 20:31:32 10° NE visible
10 Apr 4.5 22:10:59 49° SSE 22:12:35 65° E 22:18:53 10° NNE visible
10 Apr 5.9 23:55:43 22° WSW 23:58:34 31° WNW 00:04:10 10° N visible
11 Apr 5.7 20:52:23 20° ESE 20:54:25 24° E 20:59:17 10° NNE visible
11 Apr 4.5 22:37:06 45° SSW 22:39:14 80° WNW 22:45:39 10° N visible
12 Apr 6.5 00:21:50 12° W 00:25:48 21° NW 00:30:27 10° N visible
12 Apr 5.2 21:18:28 29° SE 21:20:42 38° E 21:26:29 10° NNE visible
12 Apr 5.2 23:03:11 31° SW 23:06:03 51° WNW 23:12:15 10° N visible
13 Apr 6.9 00:50:09 10° WNW 00:53:13 14° NW 00:56:18 10° NNW visible
13 Apr 6.3 20:00:08 10° E 20:02:57 13° ENE 20:05:47 10° NE visible
13 Apr 4.6 21:44:32 35° SSE 21:47:09 61° E 21:53:24 10° NNE visible
13 Apr 5.9 23:29:16 19° WSW 23:33:03 33° WNW 23:38:44 10° N visible
